This is the latest recevied weather packets stored in our database for station/object CALDNA-WX. If no packets are shown the sender has not sent any weather packets the latest 10 day(s).
| Time | Temp. | Humidity | Pressure | Rain* | Wind** | Luminosity | Snow |
|---|---|---|---|---|---|---|---|
| 1778069728 | 5° C | 71% | 983.7 hPa | 0 mm | - | - | - |
| 1778068855 | 4.44° C | 71% | 983.7 hPa | 0 mm | - | - | - |
| 1778067926 | 3.89° C | 75% | 983.1 hPa | 0 mm | - | - | - |
| 1778067041 | 3.33° C | 74% | 983 hPa | 0 mm | - | - | - |
| 1778066124 | 2.78° C | 74% | 983 hPa | 0 mm | - | - | - |
| 1778065251 | 2.78° C | 74% | 983 hPa | 0 mm | - | - | - |
| 1778064324 | 2.78° C | 70% | 983 hPa | 0 mm | - | - | - |
| 1778063441 | 2.78° C | 70% | 983 hPa | 0 mm | - | - | - |
| 1778062524 | 2.78° C | 70% | 983 hPa | 0 mm | - | - | - |
| 1778061652 | 2.78° C | 70% | 983 hPa | 0 mm | - | - | - |
| 1778060724 | 3.33° C | 67% | 982 hPa | 0 mm | - | - | - |
| 1778059840 | 3.33° C | 67% | 982.3 hPa | 0 mm | - | - | - |
| 1778058924 | 3.33° C | 67% | 982.3 hPa | 0 mm | - | - | - |
| 1778058053 | 3.89° C | 67% | 982.3 hPa | 0 mm | - | - | - |
| 1778057124 | 3.89° C | 69% | 981.8 hPa | 0 mm | - | - | - |
| 1778056238 | 3.89° C | 70% | 982.3 hPa | 0 mm | - | - | - |
| 1778055323 | 3.89° C | 70% | 982.3 hPa | 0 mm | - | - | - |
| 1778054453 | 3.89° C | 70% | 982.3 hPa | 0 mm | - | - | - |
| 1778053523 | 4.44° C | 69% | 982.2 hPa | 0 mm | - | - | - |
| 1778052642 | 4.44° C | 69% | 982.2 hPa | 0 mm | - | - | - |
| 1778051723 | 4.44° C | 69% | 982.2 hPa | 0 mm | - | - | - |
| 1778050846 | 5° C | 69% | 982.2 hPa | 0 mm | - | - | - |
| 1778049923 | 5° C | 69% | 982.6 hPa | 0 mm | - | - | - |
| 1778049041 | 5.56° C | 69% | 982.6 hPa | 0 mm | - | - | - |
| 1778048124 | 5.56° C | 69% | 982.6 hPa | 0 mm | - | - | - |
* Rain latest hour (hover to see other rain measurements)
** Current wind speed in m/s (hover to see current wind gust speed)